Location: Tucson
(32.2217°N, 110.9265°W)
Time: 18:11:02
(UTC-07:00)

Transit 2A Rocket - Pass Details

Date: 16 August 2022
Orbit: 593 x 908 km, 66.7° (Epoch: 26 September)

Event Time Altitude Azimuth Distance (km) Brightness Sun altitude
Rises 02:35:39 0° 342° (NNW) 2,890 8.4 -34.9°
Reaches altitude 10° 02:37:56 10° 349° (N) 2,012 7.6 -34.6°
Enters shadow 02:38:39 14° 353° (N) 1,753 7.3 -34.5°
